Retour au catalogue

STARLINK-5961

ActifCommunicationsVLEO
NORAD 56914·PAYLOAD·🇺🇸 United States

Lancé Jun 12, 2023 depuis Cape Canaveral Space Force Station

Loading…

Prochains Passages (prochaines 24 heures)

TLE

FraisSource: CelesTrak SupGP

Époque: Sep 15, 2026, 02:02 UTC

1 56914C 23083AQ  26258.08520833 -.00005243  00000+0 -18987-3 0  2582
2 56914  43.0006  80.6784 0001900 261.0836 266.8838 15.27585711    13

Suivez STARLINK-5961 en temps réel avec AllMySat

Download on the App Store